Weather History for Cortez, CO

Change the Weather History Date:

Tuesday, July 15, 2014

  Actual Average Record
Temperature  
Mean Temperature 77 °F 72 °F  
Max Temperature 90 °F 91 °F 100 °F (2003)
Min Temperature 64 °F 53 °F 44 °F (1997)
Degree Days  
Heating Degree Days 0 0  
Month to date heating degree days 0 0  
Since 1 June heating degree days 31 75  
Since 1 July heating degree days 0 0  
Cooling Degree Days 12 7  
Month to date cooling degree days 148 86  
Year to date cooling degree days 221 149  
Since 1 June cooling degree days 205 144  
Growing Degree Days 26 (Base 50)    
Moisture  
Dew Point 51 °F    
Average Humidity 46    
Maximum Humidity 68    
Minimum Humidity 24    
Precipitation  
Precipitation T in 0.03 in 0.22 in (2012)
Month to date precipitation 0.41 0.29  
Year to date precipitation 3.40 5.91  
Sea Level Pressure  
Sea Level Pressure 29.99 in    
Wind  
Wind Speed 8 mph (South)    
Max Wind Speed 24 mph    
Max Gust Speed 31 mph    
Visibility 10 miles    
Events Rain , Thunderstorm    
T = Trace of Precipitation, MM = Missing Value Source: NWS Daily Summary

Daily Weather History Graph

Daily Weather History Graph

Search for Another Location

Airport:

Trip Planner

Search our weather history database for the weather conditions in past years. The results will help you decide how hot, cold, wet, or windy it might be!

Date:

Astronomy

Jul. 15, 2014 Rise Set
Actual Time 6:05 AM MDT 8:34 PM MDT
Civil Twilight 5:35 AM MDT 9:04 PM MDT
Nautical Twilight 4:58 AM MDT 9:42 PM MDT
Astronomical Twilight 4:17 AM MDT 10:23 PM MDT
Moon 10:51 PM MDT (7/15) 9:57 AM MDT (7/15)
Length of Visible Light 15h 29m
Length of Day
14h 28m
Waning Gibbous, 85% of the Moon is Illuminated
Jul 15
Waning Gibbous
Jul 18
Last Quarter
Jul 26
New
Aug 3
First Quarter
Aug 10
Full

Hourly Weather History & Observations

Time (MDT) Temp. Dew Point Humidity Pressure Visibility Wind Dir Wind Speed Gust Speed Precip Events Conditions
12:18 AM 71.1 °F 54.0 °F 55% 30.25 in 10.0 mi ESE 10.4 mph - N/A Thunderstorm Mostly Cloudy
12:53 AM 72.0 °F 51.1 °F 48% 29.96 in 10.0 mi WSW 9.2 mph - 0.00 in Rain , Thunderstorm Light Thunderstorms and Rain
1:01 AM 70.0 °F 55.0 °F 59% 30.25 in 10.0 mi WSW 12.7 mph - 0.00 in Rain , Thunderstorm Light Rain
1:53 AM 70.0 °F 52.0 °F 53% 29.94 in 10.0 mi South 12.7 mph - 0.00 in   Partly Cloudy
2:53 AM 68.0 °F 53.1 °F 59% 29.97 in 10.0 mi East 8.1 mph - N/A   Partly Cloudy
3:53 AM 69.1 °F 52.0 °F 54% 29.99 in 10.0 mi NNE 9.2 mph - N/A   Clear
4:53 AM 66.9 °F 53.1 °F 61% 30.02 in 10.0 mi East 8.1 mph - N/A   Mostly Cloudy
5:53 AM 66.9 °F 55.0 °F 66% 30.01 in 10.0 mi South 4.6 mph - N/A   Mostly Cloudy
6:53 AM 66.9 °F 55.9 °F 68% 30.09 in 10.0 mi SSE 15.0 mph 28.8 mph N/A   Partly Cloudy
7:53 AM 68.0 °F 55.9 °F 65% 30.09 in 10.0 mi SSE 17.3 mph 27.6 mph N/A   Clear
8:53 AM 71.1 °F 54.0 °F 55% 30.09 in 10.0 mi SE 13.8 mph 23.0 mph N/A   Clear
9:53 AM 75.9 °F 55.0 °F 48% 30.10 in 10.0 mi SSE 11.5 mph - N/A   Clear
10:53 AM 77.0 °F 54.0 °F 45% 30.09 in 10.0 mi SSE 8.1 mph - N/A   Clear
11:53 AM 77.0 °F 53.1 °F 43% 30.07 in 10.0 mi WSW 9.2 mph - N/A   Clear
12:53 PM 79.0 °F 52.0 °F 39% 30.03 in 10.0 mi Variable 3.5 mph - N/A   Clear
1:53 PM 82.9 °F 50.0 °F 32% 29.98 in 10.0 mi North - - N/A   Clear
2:53 PM 86.0 °F 50.0 °F 29% 29.94 in 10.0 mi Variable 4.6 mph - N/A   Clear
3:53 PM 87.1 °F 50.0 °F 28% 29.88 in 10.0 mi South 8.1 mph - N/A   Clear
4:53 PM 86.0 °F 46.0 °F 25% 29.86 in 10.0 mi WNW 8.1 mph - N/A   Clear
5:53 PM 87.1 °F 46.0 °F 24% 29.83 in 10.0 mi WNW 10.4 mph - N/A   Clear
6:53 PM 84.9 °F 46.0 °F 26% 29.82 in 10.0 mi WNW 11.5 mph - N/A   Clear
7:53 PM 82.9 °F 48.0 °F 29% 29.85 in 10.0 mi WNW 11.5 mph - N/A   Clear
8:53 PM 77.0 °F 46.9 °F 34% 29.87 in 10.0 mi NW 3.5 mph - N/A   Clear
10:53 PM 72.0 °F 44.1 °F 37% 29.93 in 10.0 mi Calm Calm - N/A   Clear
11:53 PM 68.0 °F 46.9 °F 47% 29.93 in 10.0 mi Calm Calm - N/A   Clear